Time,TemperatureF,DewpointF,PressureIn,WindDirection,WindDirectionDegrees,WindSpeedMPH,WindSpeedGustMPH,Humidity,HourlyPrecipIn,Conditions,Clouds,dailyrainin,SoftwareType,DateUTC
2013-06-11 00:00:00,61.6,59.6,29.66,NNW,345,0.0,5.0,93,0.00,,SKC,0.00,VWS V14.01,2013-06-11 04:00:00,
2013-06-11 00:16:00,61.5,59.2,29.67,NNW,345,0.0,5.0,92,0.00,,SKC,0.71,VWS V14.01,2013-06-11 04:16:00,
2013-06-11 00:22:00,61.5,59.2,29.67,NNW,345,0.0,5.0,92,0.00,,SKC,0.71,VWS V14.01,2013-06-11 04:22:00,
2013-06-11 00:28:00,61.5,59.2,29.67,NNW,345,0.0,5.0,92,0.00,,SKC,0.71,VWS V14.01,2013-06-11 04:28:00,
2013-06-11 00:33:00,61.5,59.2,29.66,NNW,345,0.0,5.0,92,0.00,,SKC,0.71,VWS V14.01,2013-06-11 04:33:00,
2013-06-11 00:38:00,61.5,59.2,29.66,NNW,345,0.0,5.0,92,0.00,,SKC,0.71,VWS V14.01,2013-06-11 04:38:00,
2013-06-11 00:43:00,61.5,59.2,29.66,NNW,345,0.0,5.0,92,0.00,,SKC,0.71,VWS V14.01,2013-06-11 04:43:00,
2013-06-11 00:48:00,61.6,59.6,29.66,NNW,345,0.0,5.0,93,0.00,,SKC,0.71,VWS V14.01,2013-06-11 04:48:00,
2013-06-11 00:53:00,61.6,59.6,29.66,NNW,345,0.0,5.0,93,0.00,,SKC,0.71,VWS V14.01,2013-06-11 04:53:00,
2013-06-11 00:58:00,61.6,59.6,29.66,NNW,345,0.0,5.0,93,0.00,,SKC,0.71,VWS V14.01,2013-06-11 04:58:00,
2013-06-11 01:00:00,61.6,59.6,29.65,NNW,345,0.0,0.0,93,0.00,,SKC,0.00,VWS V14.01,2013-06-11 05:00:00,
2013-06-11 01:03:00,61.6,59.6,29.66,NNW,345,0.0,0.0,93,0.00,,SKC,0.00,VWS V14.01,2013-06-11 05:03:00,
2013-06-11 01:08:00,61.8,59.8,29.66,NNW,345,0.0,0.0,93,0.00,,SKC,0.00,VWS V14.01,2013-06-11 05:08:00,
2013-06-11 01:13:00,61.8,59.8,29.66,NNW,345,0.0,0.0,93,0.00,,SKC,0.00,VWS V14.01,2013-06-11 05:13:00,
2013-06-11 01:18:00,61.8,59.8,29.66,NNW,345,0.0,0.0,93,0.00,,SKC,0.00,VWS V14.01,2013-06-11 05:18:00,
2013-06-11 01:23:00,61.6,59.6,29.66,NNW,345,0.0,0.0,93,0.00,,SKC,0.00,VWS V14.01,2013-06-11 05:23:00,
2013-06-11 01:28:00,61.6,59.6,29.66,NNW,345,0.0,0.0,93,0.00,,SKC,0.00,VWS V14.01,2013-06-11 05:28:00,
2013-06-11 01:33:00,61.6,59.6,29.66,NNW,345,0.0,0.0,93,0.00,,SKC,0.00,VWS V14.01,2013-06-11 05:33:00,
2013-06-11 01:38:00,61.6,59.6,29.66,NNW,345,0.0,0.0,93,0.00,,SKC,0.00,VWS V14.01,2013-06-11 05:38:00,
2013-06-11 01:44:00,61.6,59.6,29.66,NNW,345,0.0,0.0,93,0.00,,SKC,0.00,VWS V14.01,2013-06-11 05:44:00,
2013-06-11 01:49:00,61.6,59.6,29.65,NNW,345,0.0,0.0,93,0.00,,SKC,0.00,VWS V14.01,2013-06-11 05:49:00,
2013-06-11 01:54:00,61.6,59.6,29.65,NNW,345,0.0,0.0,93,0.00,,SKC,0.00,VWS V14.01,2013-06-11 05:54:00,
2013-06-11 01:59:00,61.6,59.6,29.65,NNW,345,0.0,0.0,93,0.00,,SKC,0.00,VWS V14.01,2013-06-11 05:59:00,
2013-06-11 02:00:00,61.6,59.6,29.65,NNW,345,0.0,2.0,93,0.00,,SKC,0.00,VWS V14.01,2013-06-11 06:00:00,
2013-06-11 02:04:00,61.6,59.6,29.65,NNW,345,0.0,2.0,93,0.00,,SKC,0.00,VWS V14.01,2013-06-11 06:04:00,
2013-06-11 02:09:00,61.6,59.6,29.65,NNW,345,0.0,2.0,93,0.00,,SKC,0.00,VWS V14.01,2013-06-11 06:09:00,
2013-06-11 02:14:00,61.6,59.6,29.65,NNW,345,0.0,2.0,93,0.00,,SKC,0.00,VWS V14.01,2013-06-11 06:14:00,
2013-06-11 02:19:00,61.6,59.6,29.65,NNW,345,0.0,2.0,93,0.00,,SKC,0.00,VWS V14.01,2013-06-11 06:19:00,
2013-06-11 02:24:00,61.6,59.6,29.65,NNW,345,0.0,2.0,93,0.00,,SKC,0.00,VWS V14.01,2013-06-11 06:24:00,
2013-06-11 02:29:00,61.6,59.6,29.65,NNW,345,0.0,2.0,93,0.00,,SKC,0.00,VWS V14.01,2013-06-11 06:29:00,
2013-06-11 02:34:00,61.6,59.6,29.65,NNW,345,0.0,2.0,93,0.00,,SKC,0.00,VWS V14.01,2013-06-11 06:34:00,
2013-06-11 02:39:00,61.6,59.6,29.65,NNW,345,0.0,2.0,93,0.00,,SKC,0.00,VWS V14.01,2013-06-11 06:39:00,
2013-06-11 02:44:00,61.6,59.6,29.65,NNW,345,0.0,2.0,93,0.00,,SKC,0.00,VWS V14.01,2013-06-11 06:44:00,
2013-06-11 02:49:00,61.6,59.6,29.65,NNW,345,0.0,2.0,93,0.00,,SKC,0.00,VWS V14.01,2013-06-11 06:49:00,
2013-06-11 02:54:00,61.6,59.6,29.65,NNW,345,0.0,2.0,93,0.00,,SKC,0.00,VWS V14.01,2013-06-11 06:54:00,
2013-06-11 03:00:00,61.6,59.6,29.65,NNW,345,0.0,2.0,93,0.00,,SKC,0.00,VWS V14.01,2013-06-11 07:00:00,
2013-06-11 03:05:00,61.8,59.8,29.65,NNW,345,0.0,6.0,93,0.00,,SKC,0.00,VWS V14.01,2013-06-11 07:05:00,
2013-06-11 03:10:00,61.8,59.8,29.65,NNW,345,0.0,6.0,93,0.00,,SKC,0.00,VWS V14.01,2013-06-11 07:10:00,
2013-06-11 03:15:00,61.8,59.8,29.65,NNW,345,0.0,6.0,93,0.00,,SKC,0.00,VWS V14.01,2013-06-11 07:15:00,
2013-06-11 03:20:00,62.0,60.0,29.65,NNW,345,0.0,6.0,93,0.00,,SKC,0.00,VWS V14.01,2013-06-11 07:20:00,
2013-06-11 03:25:00,62.0,60.0,29.65,North,351,0.0,6.0,93,0.00,,SKC,0.00,VWS V14.01,2013-06-11 07:25:00,
2013-06-11 03:30:00,62.0,60.0,29.65,North,351,0.0,6.0,93,0.00,,SKC,0.00,VWS V14.01,2013-06-11 07:30:00,
2013-06-11 03:35:00,62.1,60.1,29.65,North,351,0.0,6.0,93,0.00,,SKC,0.00,VWS V14.01,2013-06-11 07:35:00,
2013-06-11 03:40:00,62.1,60.1,29.65,North,351,0.0,6.0,93,0.00,,SKC,0.00,VWS V14.01,2013-06-11 07:40:00,
2013-06-11 03:45:00,62.3,60.2,29.65,North,355,0.0,6.0,93,0.00,,SKC,0.00,VWS V14.01,2013-06-11 07:45:00,
2013-06-11 03:50:00,62.3,60.2,29.65,WNW,284,1.0,7.0,93,0.00,,SKC,0.00,VWS V14.01,2013-06-11 07:50:00,
2013-06-11 03:55:00,62.3,60.2,29.65,WNW,284,0.0,7.0,93,0.00,,SKC,0.00,VWS V14.01,2013-06-11 07:55:00,
2013-06-11 04:00:00,62.3,60.2,29.65,WNW,284,0.0,7.0,93,0.00,,SKC,0.00,VWS V14.01,2013-06-11 08:00:00,
2013-06-11 04:05:00,62.3,60.2,29.65,ENE,65,0.0,5.0,93,0.00,,SKC,0.00,VWS V14.01,2013-06-11 08:05:00,
2013-06-11 04:10:00,62.3,60.2,29.65,NNW,339,0.0,5.0,93,0.00,,SKC,0.00,VWS V14.01,2013-06-11 08:10:00,
2013-06-11 04:15:00,62.3,60.2,29.65,NNW,338,0.0,5.0,93,0.00,,SKC,0.00,VWS V14.01,2013-06-11 08:15:00,
2013-06-11 04:20:00,62.3,60.2,29.65,North,355,0.0,5.0,93,0.00,,SKC,0.00,VWS V14.01,2013-06-11 08:20:00,
2013-06-11 04:25:00,62.1,60.1,29.65,North,355,0.0,5.0,93,0.00,,SKC,0.00,VWS V14.01,2013-06-11 08:25:00,
2013-06-11 04:30:00,62.3,60.2,29.65,North,355,0.0,9.0,93,0.00,,SKC,0.00,VWS V14.01,2013-06-11 08:30:00,
2013-06-11 04:36:00,62.1,60.1,29.65,North,355,0.0,9.0,93,0.00,,SKC,0.00,VWS V14.01,2013-06-11 08:36:00,
2013-06-11 04:41:00,62.1,60.1,29.65,North,355,0.0,9.0,93,0.00,,SKC,0.00,VWS V14.01,2013-06-11 08:41:00,
2013-06-11 04:46:00,62.1,60.1,29.65,North,355,0.0,9.0,93,0.00,,SKC,0.00,VWS V14.01,2013-06-11 08:46:00,
2013-06-11 04:51:00,62.1,60.1,29.65,North,355,0.0,9.0,93,0.00,,SKC,0.00,VWS V14.01,2013-06-11 08:51:00,
2013-06-11 04:56:00,62.1,60.1,29.65,North,355,0.0,9.0,93,0.00,,SKC,0.00,VWS V14.01,2013-06-11 08:56:00,
2013-06-11 05:00:00,62.3,60.6,29.67,North,355,0.0,6.0,94,0.00,,SKC,0.00,VWS V14.01,2013-06-11 09:00:00,
2013-06-11 05:01:00,62.3,60.2,29.66,North,355,0.0,2.0,93,0.00,,SKC,0.00,VWS V14.01,2013-06-11 09:01:00,
2013-06-11 05:06:00,62.3,60.2,29.66,North,355,0.0,4.0,93,0.00,,SKC,0.00,VWS V14.01,2013-06-11 09:06:00,
2013-06-11 05:11:00,62.3,60.2,29.66,North,355,0.0,4.0,93,0.00,,SKC,0.00,VWS V14.01,2013-06-11 09:11:00,
2013-06-11 05:16:00,62.3,60.2,29.65,North,355,0.0,4.0,93,0.00,,SKC,0.00,VWS V14.01,2013-06-11 09:16:00,
2013-06-11 05:21:00,62.3,60.2,29.65,North,355,0.0,6.0,93,0.00,,SKC,0.00,VWS V14.01,2013-06-11 09:21:00,
2013-06-11 05:26:00,62.3,60.2,29.65,North,355,0.0,6.0,93,0.00,,SKC,0.00,VWS V14.01,2013-06-11 09:26:00,
2013-06-11 05:32:00,62.3,60.2,29.66,North,355,0.0,6.0,93,0.00,,SKC,0.00,VWS V14.01,2013-06-11 09:32:00,
2013-06-11 05:37:00,62.3,60.2,29.66,North,355,0.0,6.0,93,0.00,,SKC,0.00,VWS V14.01,2013-06-11 09:37:00,
2013-06-11 05:42:00,62.3,60.2,29.66,North,355,0.0,6.0,93,0.00,,SKC,0.00,VWS V14.01,2013-06-11 09:42:00,
2013-06-11 05:47:00,62.3,60.2,29.67,North,355,0.0,6.0,93,0.00,,SKC,0.00,VWS V14.01,2013-06-11 09:47:00,
2013-06-11 05:52:00,62.3,60.2,29.67,North,355,0.0,6.0,93,0.00,,SKC,0.00,VWS V14.01,2013-06-11 09:52:00,
2013-06-11 05:57:00,62.3,60.6,29.67,North,355,0.0,6.0,94,0.00,,SKC,0.00,VWS V14.01,2013-06-11 09:57:00,
2013-06-11 06:00:00,62.9,61.2,29.68,North,355,4.0,6.0,94,0.01,,SKC,0.01,VWS V14.01,2013-06-11 10:00:00,
2013-06-11 06:02:00,62.3,60.6,29.67,North,355,0.0,0.0,94,0.00,,SKC,0.00,VWS V14.01,2013-06-11 10:02:00,
2013-06-11 06:07:00,62.3,60.6,29.67,North,355,0.0,0.0,94,0.00,,SKC,0.00,VWS V14.01,2013-06-11 10:07:00,
2013-06-11 06:12:00,62.4,60.7,29.67,North,355,0.0,0.0,94,0.01,,SKC,0.01,VWS V14.01,2013-06-11 10:12:00,
2013-06-11 06:17:00,62.4,60.7,29.67,North,355,0.0,0.0,94,0.01,,SKC,0.01,VWS V14.01,2013-06-11 10:17:00,
2013-06-11 06:22:00,62.4,60.7,29.67,North,355,0.0,0.0,94,0.01,,SKC,0.01,VWS V14.01,2013-06-11 10:22:00,
2013-06-11 06:27:00,62.6,60.8,29.67,North,355,0.0,0.0,94,0.01,,SKC,0.01,VWS V14.01,2013-06-11 10:27:00,
2013-06-11 06:32:00,62.6,60.8,29.67,North,355,0.0,2.0,94,0.01,,SKC,0.01,VWS V14.01,2013-06-11 10:32:00,
2013-06-11 06:38:00,62.7,61.0,29.67,North,355,0.0,5.0,94,0.01,,SKC,0.01,VWS V14.01,2013-06-11 10:38:00,
2013-06-11 06:43:00,62.7,61.0,29.67,North,355,0.0,5.0,94,0.01,,SKC,0.01,VWS V14.01,2013-06-11 10:43:00,
2013-06-11 06:48:00,62.7,61.0,29.68,North,355,0.0,5.0,94,0.01,,SKC,0.01,VWS V14.01,2013-06-11 10:48:00,
2013-06-11 06:53:00,62.9,61.2,29.68,North,355,1.0,5.0,94,0.01,,SKC,0.01,VWS V14.01,2013-06-11 10:53:00,
2013-06-11 06:58:00,62.9,61.2,29.68,North,355,0.0,5.0,94,0.01,,SKC,0.01,VWS V14.01,2013-06-11 10:58:00,
2013-06-11 07:00:00,63.7,61.9,29.71,North,355,0.0,8.0,94,0.01,,SKC,0.01,VWS V14.01,2013-06-11 11:00:00,
2013-06-11 07:03:00,62.9,61.2,29.68,North,355,1.0,4.0,94,0.01,,SKC,0.01,VWS V14.01,2013-06-11 11:03:00,
2013-06-11 07:08:00,63.1,61.3,29.68,North,355,0.0,4.0,94,0.01,,SKC,0.01,VWS V14.01,2013-06-11 11:08:00,
2013-06-11 07:13:00,63.1,61.3,29.68,North,355,4.0,6.0,94,0.01,,SKC,0.01,VWS V14.01,2013-06-11 11:13:00,
2013-06-11 07:18:00,63.1,61.3,29.69,North,355,1.0,8.0,94,0.01,,SKC,0.01,VWS V14.01,2013-06-11 11:18:00,
2013-06-11 07:23:00,63.2,61.5,29.69,North,355,0.0,8.0,94,0.01,,SKC,0.01,VWS V14.01,2013-06-11 11:23:00,
2013-06-11 07:28:00,63.2,61.5,29.69,North,355,0.0,8.0,94,0.01,,SKC,0.01,VWS V14.01,2013-06-11 11:28:00,
2013-06-11 07:33:00,63.2,61.5,29.69,North,355,0.0,8.0,94,0.01,,SKC,0.01,VWS V14.01,2013-06-11 11:33:00,
2013-06-11 07:38:00,63.4,61.7,29.69,North,355,0.0,8.0,94,0.01,,SKC,0.01,VWS V14.01,2013-06-11 11:38:00,
2013-06-11 07:43:00,63.4,61.7,29.69,North,355,3.0,8.0,94,0.01,,SKC,0.01,VWS V14.01,2013-06-11 11:43:00,
2013-06-11 07:48:00,63.5,61.8,29.70,North,355,0.0,8.0,94,0.01,,SKC,0.01,VWS V14.01,2013-06-11 11:48:00,
2013-06-11 07:53:00,63.5,61.8,29.70,North,355,0.0,8.0,94,0.01,,SKC,0.01,VWS V14.01,2013-06-11 11:53:00,
2013-06-11 07:58:00,63.7,62.0,29.70,North,355,0.0,8.0,94,0.01,,SKC,0.01,VWS V14.01,2013-06-11 11:58:00,
2013-06-11 08:00:00,64.8,63.0,29.72,NNE,21,5.0,7.0,94,0.00,,SKC,0.01,VWS V14.01,2013-06-11 12:00:00,
2013-06-11 08:03:00,63.7,62.0,29.71,North,355,0.0,0.0,94,0.00,,SKC,0.01,VWS V14.01,2013-06-11 12:03:00,
2013-06-11 08:08:00,63.9,62.1,29.71,North,355,0.0,0.0,94,0.00,,SKC,0.01,VWS V14.01,2013-06-11 12:08:00,
2013-06-11 08:13:00,64.0,62.2,29.71,North,355,0.0,6.0,94,0.00,,SKC,0.01,VWS V14.01,2013-06-11 12:13:00,
2013-06-11 08:18:00,64.0,62.2,29.71,NE,42,0.0,6.0,94,0.00,,SKC,0.01,VWS V14.01,2013-06-11 12:18:00,
2013-06-11 08:23:00,64.2,62.4,29.71,NE,46,0.0,6.0,94,0.00,,SKC,0.01,VWS V14.01,2013-06-11 12:23:00,
2013-06-11 08:28:00,64.3,62.5,29.71,NE,42,0.0,6.0,94,0.00,,SKC,0.01,VWS V14.01,2013-06-11 12:28:00,
2013-06-11 08:34:00,64.5,62.7,29.71,NNW,344,0.0,6.0,94,0.00,,SKC,0.01,VWS V14.01,2013-06-11 12:34:00,
2013-06-11 08:39:00,64.7,62.9,29.71,NE,35,0.0,7.0,94,0.00,,SKC,0.01,VWS V14.01,2013-06-11 12:39:00,
2013-06-11 08:44:00,64.7,62.9,29.71,NE,35,0.0,7.0,94,0.00,,SKC,0.01,VWS V14.01,2013-06-11 12:44:00,
2013-06-11 08:49:00,64.7,62.9,29.72,NE,35,4.0,7.0,94,0.00,,SKC,0.01,VWS V14.01,2013-06-11 12:49:00,
2013-06-11 08:54:00,64.7,62.9,29.72,NNE,20,0.0,7.0,94,0.00,,SKC,0.01,VWS V14.01,2013-06-11 12:54:00,
2013-06-11 08:59:00,64.8,63.0,29.72,NNE,20,0.0,7.0,94,0.00,,SKC,0.01,VWS V14.01,2013-06-11 12:59:00,
2013-06-11 09:00:00,65.5,63.4,29.73,East,101,5.0,11.0,93,0.01,,SKC,0.02,VWS V14.01,2013-06-11 13:00:00,
2013-06-11 09:04:00,64.8,63.0,29.72,NNE,21,0.0,4.0,94,0.00,,SKC,0.01,VWS V14.01,2013-06-11 13:04:00,
2013-06-11 09:09:00,65.0,63.2,29.72,NNE,21,0.0,4.0,94,0.00,,SKC,0.01,VWS V14.01,2013-06-11 13:09:00,
2013-06-11 09:14:00,65.0,63.2,29.72,NNE,21,4.0,4.0,94,0.00,,SKC,0.01,VWS V14.01,2013-06-11 13:14:00,
2013-06-11 09:19:00,65.3,63.5,29.73,NNE,21,0.0,6.0,94,0.00,,SKC,0.01,VWS V14.01,2013-06-11 13:19:00,
2013-06-11 09:24:00,65.3,63.2,29.73,NNE,21,0.0,6.0,93,0.00,,SKC,0.01,VWS V14.01,2013-06-11 13:24:00,
2013-06-11 09:29:00,65.3,63.2,29.73,NNE,21,0.0,6.0,93,0.00,,SKC,0.01,VWS V14.01,2013-06-11 13:29:00,
2013-06-11 09:35:00,65.5,63.4,29.73,NNE,21,2.0,6.0,93,0.00,,SKC,0.01,VWS V14.01,2013-06-11 13:35:00,
2013-06-11 09:40:00,65.5,63.4,29.73,NNE,21,0.0,6.0,93,0.00,,SKC,0.01,VWS V14.01,2013-06-11 13:40:00,
2013-06-11 09:45:00,65.3,63.2,29.73,East,96,6.0,10.0,93,0.01,,SKC,0.02,VWS V14.01,2013-06-11 13:45:00,
2013-06-11 09:50:00,65.2,63.1,29.73,ESE,112,3.0,10.0,93,0.01,,SKC,0.02,VWS V14.01,2013-06-11 13:50:00,
2013-06-11 09:55:00,65.3,63.2,29.73,East,89,0.0,11.0,93,0.01,,SKC,0.02,VWS V14.01,2013-06-11 13:55:00,
2013-06-11 10:00:00,65.5,63.4,29.73,East,101,8.0,11.0,93,0.01,,SKC,0.02,VWS V14.01,2013-06-11 14:00:00,
2013-06-11 10:05:00,65.5,63.4,29.73,ESE,113,0.0,10.0,93,0.01,,SKC,0.02,VWS V14.01,2013-06-11 14:05:00,
2013-06-11 10:10:00,65.8,63.4,29.73,ESE,104,0.0,13.0,92,0.01,,SKC,0.02,VWS V14.01,2013-06-11 14:10:00,
2013-06-11 10:15:00,66.0,63.6,29.73,East,95,10.0,14.0,92,0.01,,SKC,0.02,VWS V14.01,2013-06-11 14:15:00,
2013-06-11 10:20:00,65.6,63.2,29.73,East,81,7.0,14.0,92,0.01,,SKC,0.02,VWS V14.01,2013-06-11 14:20:00,
2013-06-11 10:25:00,65.3,62.6,29.73,East,81,4.0,14.0,91,0.01,,SKC,0.02,VWS V14.01,2013-06-11 14:25:00,
2013-06-11 10:30:00,65.3,62.6,29.74,East,96,0.0,14.0,91,0.01,,SKC,0.02,VWS V14.01,2013-06-11 14:30:00,
2013-06-11 10:35:00,65.5,62.8,29.74,ESE,104,7.0,14.0,91,0.01,,SKC,0.02,VWS V14.01,2013-06-11 14:35:00,
2013-06-11 10:40:00,65.5,62.5,29.74,East,84,5.0,14.0,90,0.01,,SKC,0.02,VWS V14.01,2013-06-11 14:40:00,
2013-06-11 10:45:00,65.8,62.8,29.74,ENE,76,1.0,14.0,90,0.01,,SKC,0.02,VWS V14.01,2013-06-11 14:45:00,
2013-06-11 10:50:00,66.1,62.8,29.74,ENE,57,0.0,14.0,89,0.01,,SKC,0.02,VWS V14.01,2013-06-11 14:50:00,
2013-06-11 10:55:00,66.4,63.1,29.74,ESE,104,0.0,14.0,89,0.01,,SKC,0.02,VWS V14.01,2013-06-11 14:55:00,
2013-06-11 11:00:00,68.8,61.7,29.74,East,94,0.0,14.0,78,0.00,,SKC,0.02,VWS V14.01,2013-06-11 15:00:00,
2013-06-11 11:01:00,66.4,62.7,29.74,East,94,0.0,0.0,88,0.00,,SKC,0.02,VWS V14.01,2013-06-11 15:01:00,
2013-06-11 11:06:00,66.4,62.7,29.74,ENE,65,7.0,13.0,88,0.00,,SKC,0.02,VWS V14.01,2013-06-11 15:06:00,
2013-06-11 11:11:00,66.8,62.8,29.74,ESE,105,5.0,13.0,87,0.00,,SKC,0.02,VWS V14.01,2013-06-11 15:11:00,
2013-06-11 11:16:00,66.9,62.6,29.74,East,82,6.0,13.0,86,0.00,,SKC,0.02,VWS V14.01,2013-06-11 15:16:00,
2013-06-11 11:21:00,66.9,62.2,29.74,East,84,4.0,13.0,85,0.00,,SKC,0.02,VWS V14.01,2013-06-11 15:21:00,
2013-06-11 11:26:00,67.1,62.1,29.74,ENE,58,0.0,13.0,84,0.00,,SKC,0.02,VWS V14.01,2013-06-11 15:26:00,
2013-06-11 11:31:00,67.3,62.0,29.74,ENE,64,6.0,13.0,83,0.00,,SKC,0.02,VWS V14.01,2013-06-11 15:31:00,
2013-06-11 11:37:00,67.6,61.6,29.74,ENE,66,5.0,14.0,81,0.00,,SKC,0.02,VWS V14.01,2013-06-11 15:37:00,
2013-06-11 11:42:00,67.8,61.4,29.74,ESE,105,4.0,14.0,80,0.00,,SKC,0.02,VWS V14.01,2013-06-11 15:42:00,
2013-06-11 11:47:00,68.1,61.7,29.75,ENE,61,6.0,14.0,80,0.00,,SKC,0.02,VWS V14.01,2013-06-11 15:47:00,
2013-06-11 11:52:00,68.6,61.8,29.75,East,94,5.0,14.0,79,0.00,,SKC,0.02,VWS V14.01,2013-06-11 15:52:00,
2013-06-11 11:58:00,68.6,61.5,29.75,East,81,0.0,14.0,78,0.00,,SKC,0.02,VWS V14.01,2013-06-11 15:58:00,
2013-06-11 12:00:00,71.6,61.7,29.74,East,79,0.0,12.0,71,0.00,,SKC,0.02,VWS V14.01,2013-06-11 16:00:00,
2013-06-11 12:03:00,68.9,61.8,29.74,NNE,22,0.0,12.0,78,0.00,,SKC,0.02,VWS V14.01,2013-06-11 16:03:00,
2013-06-11 12:08:00,69.1,61.6,29.74,NE,46,6.0,12.0,77,0.00,,SKC,0.02,VWS V14.01,2013-06-11 16:08:00,
2013-06-11 12:13:00,69.8,62.3,29.74,NE,38,0.0,12.0,77,0.00,,SKC,0.02,VWS V14.01,2013-06-11 16:13:00,
2013-06-11 12:18:00,69.8,61.9,29.74,NE,49,4.0,12.0,76,0.00,,SKC,0.02,VWS V14.01,2013-06-11 16:18:00,
2013-06-11 12:23:00,70.1,61.8,29.74,East,86,5.0,12.0,75,0.00,,SKC,0.02,VWS V14.01,2013-06-11 16:23:00,
2013-06-11 12:28:00,70.3,61.2,29.74,East,98,0.0,12.0,73,0.00,,SKC,0.02,VWS V14.01,2013-06-11 16:28:00,
2013-06-11 12:33:00,70.3,61.2,29.74,ENE,67,0.0,12.0,73,0.00,,SKC,0.02,VWS V14.01,2013-06-11 16:33:00,
2013-06-11 12:38:00,70.1,61.8,29.74,ESE,107,1.0,12.0,75,0.00,,SKC,0.02,VWS V14.01,2013-06-11 16:38:00,
2013-06-11 12:43:00,70.3,62.0,29.74,NNE,30,3.0,12.0,75,0.00,,SKC,0.02,VWS V14.01,2013-06-11 16:43:00,
2013-06-11 12:48:00,70.8,62.1,29.75,ENE,58,7.0,12.0,74,0.00,,SKC,0.02,VWS V14.01,2013-06-11 16:48:00,
2013-06-11 12:53:00,71.1,62.4,29.75,ENE,72,0.0,12.0,74,0.00,,SKC,0.02,VWS V14.01,2013-06-11 16:53:00,
2013-06-11 12:58:00,71.6,62.1,29.75,ENE,63,0.0,12.0,72,0.00,,SKC,0.02,VWS V14.01,2013-06-11 16:58:00,
2013-06-11 13:00:00,74.7,62.2,29.74,ENE,73,7.0,15.0,65,0.00,,SKC,0.02,VWS V14.01,2013-06-11 17:00:00,
2013-06-11 13:03:00,71.6,61.3,29.74,ENE,58,4.0,11.0,70,0.00,,SKC,0.02,VWS V14.01,2013-06-11 17:03:00,
2013-06-11 13:08:00,71.8,61.9,29.74,East,91,0.0,11.0,71,0.00,,SKC,0.02,VWS V14.01,2013-06-11 17:08:00,
2013-06-11 13:13:00,72.1,61.4,29.74,NE,44,6.0,11.0,69,0.00,,SKC,0.02,VWS V14.01,2013-06-11 17:13:00,
2013-06-11 13:19:00,72.0,61.3,29.74,ENE,74,1.0,11.0,69,0.00,,SKC,0.02,VWS V14.01,2013-06-11 17:19:00,
2013-06-11 13:24:00,71.8,61.1,29.74,ENE,59,0.0,15.0,69,0.00,,SKC,0.02,VWS V14.01,2013-06-11 17:24:00,
2013-06-11 13:29:00,72.1,61.0,29.74,ENE,66,6.0,15.0,68,0.00,,SKC,0.02,VWS V14.01,2013-06-11 17:29:00,
2013-06-11 13:34:00,73.0,61.4,29.74,East,86,6.0,15.0,67,0.00,,SKC,0.02,VWS V14.01,2013-06-11 17:34:00,
2013-06-11 13:39:00,73.5,61.9,29.74,East,94,0.0,15.0,67,0.00,,SKC,0.02,VWS V14.01,2013-06-11 17:39:00,
2013-06-11 13:44:00,74.0,61.1,29.74,East,84,5.0,15.0,64,0.00,,SKC,0.02,VWS V14.01,2013-06-11 17:44:00,
2013-06-11 13:49:00,73.9,61.4,29.75,ENE,57,6.0,15.0,65,0.00,,SKC,0.02,VWS V14.01,2013-06-11 17:49:00,
2013-06-11 13:54:00,73.9,61.4,29.75,East,82,0.0,15.0,65,0.00,,SKC,0.02,VWS V14.01,2013-06-11 17:54:00,
2013-06-11 13:59:00,74.7,62.6,29.75,NNW,344,6.0,15.0,66,0.00,,SKC,0.02,VWS V14.01,2013-06-11 17:59:00,
2013-06-11 14:00:00,75.6,61.7,29.74,East,79,0.0,14.0,62,0.00,,SKC,0.02,VWS V14.01,2013-06-11 18:00:00,
2013-06-11 14:04:00,75.1,63.4,29.74,East,87,6.0,8.0,67,0.00,,SKC,0.02,VWS V14.01,2013-06-11 18:04:00,
2013-06-11 14:09:00,75.1,63.0,29.74,East,86,0.0,8.0,66,0.00,,SKC,0.02,VWS V14.01,2013-06-11 18:09:00,
2013-06-11 14:14:00,74.9,62.3,29.74,NE,44,0.0,8.0,65,0.00,,SKC,0.02,VWS V14.01,2013-06-11 18:14:00,
2013-06-11 14:20:00,75.1,61.7,29.74,ENE,74,1.0,11.0,63,0.00,,SKC,0.02,VWS V14.01,2013-06-11 18:20:00,
2013-06-11 14:25:00,74.9,61.5,29.74,East,101,6.0,11.0,63,0.00,,SKC,0.02,VWS V14.01,2013-06-11 18:25:00,
2013-06-11 14:30:00,75.1,60.8,29.74,ESE,105,0.0,14.0,61,0.00,,SKC,0.02,VWS V14.01,2013-06-11 18:30:00,
2013-06-11 14:35:00,75.4,62.8,29.74,ESE,105,0.0,14.0,65,0.00,,SKC,0.02,VWS V14.01,2013-06-11 18:35:00,
2013-06-11 14:40:00,75.6,62.1,29.74,ENE,78,0.0,14.0,63,0.00,,SKC,0.02,VWS V14.01,2013-06-11 18:40:00,
2013-06-11 14:45:00,75.3,62.7,29.75,ENE,68,8.0,14.0,65,0.00,,SKC,0.02,VWS V14.01,2013-06-11 18:45:00,
2013-06-11 14:50:00,75.3,62.3,29.75,NNE,29,0.0,14.0,64,0.00,,SKC,0.02,VWS V14.01,2013-06-11 18:50:00,
2013-06-11 14:55:00,75.4,61.5,29.75,East,84,5.0,14.0,62,0.00,,SKC,0.02,VWS V14.01,2013-06-11 18:55:00,
2013-06-11 15:00:00,75.6,61.7,29.74,East,79,0.0,14.0,62,0.00,,SKC,0.02,VWS V14.01,2013-06-11 19:00:00,
2013-06-11 15:05:00,75.8,62.3,29.74,SE,132,5.0,7.0,63,0.00,,SKC,0.02,VWS V14.01,2013-06-11 19:05:00,
2013-06-11 15:10:00,76.1,63.5,29.74,North,355,7.0,8.0,65,0.00,,SKC,0.02,VWS V14.01,2013-06-11 19:10:00,
2013-06-11 15:15:00,76.3,62.3,29.74,ENE,67,5.0,10.0,62,0.00,,SKC,0.02,VWS V14.01,2013-06-11 19:15:00,
2013-06-11 15:20:00,76.1,62.2,29.74,East,99,3.0,11.0,62,0.00,,SKC,0.02,VWS V14.01,2013-06-11 19:20:00,
2013-06-11 15:25:00,76.1,63.0,29.74,ESE,114,5.0,11.0,64,0.00,,SKC,0.02,VWS V14.01,2013-06-11 19:25:00,
2013-06-11 15:30:00,76.0,62.0,29.74,East,85,0.0,11.0,62,0.00,,SKC,0.02,VWS V14.01,2013-06-11 19:30:00,
2013-06-11 15:35:00,76.5,62.5,29.74,NE,40,2.0,11.0,62,0.00,,SKC,0.02,VWS V14.01,2013-06-11 19:35:00,
2013-06-11 15:40:00,76.7,60.8,29.74,ENE,78,0.0,14.0,58,0.00,,SKC,0.02,VWS V14.01,2013-06-11 19:40:00,
2013-06-11 15:45:00,76.8,61.9,29.74,ESE,106,4.0,14.0,60,0.00,,SKC,0.02,VWS V14.01,2013-06-11 19:45:00,
2013-06-11 15:51:00,77.2,62.7,29.74,East,79,0.0,14.0,61,0.00,,SKC,0.02,VWS V14.01,2013-06-11 19:51:00,
2013-06-11 15:56:00,77.0,61.6,29.74,ENE,69,0.0,14.0,59,0.00,,SKC,0.02,VWS V14.01,2013-06-11 19:56:00,
2013-06-11 16:00:00,77.6,61.2,29.73,NNE,32,7.0,13.0,57,0.00,,SKC,0.02,VWS V14.01,2013-06-11 20:00:00,
2013-06-11 16:01:00,76.5,62.1,29.74,ESE,105,0.0,4.0,61,0.00,,SKC,0.02,VWS V14.01,2013-06-11 20:01:00,
2013-06-11 16:06:00,76.1,61.7,29.74,East,85,6.0,7.0,61,0.00,,SKC,0.02,VWS V14.01,2013-06-11 20:06:00,
2013-06-11 16:11:00,76.3,61.4,29.74,ESE,103,6.0,10.0,60,0.00,,SKC,0.02,VWS V14.01,2013-06-11 20:11:00,
2013-06-11 16:17:00,76.7,61.3,29.73,East,81,8.0,13.0,59,0.00,,SKC,0.02,VWS V14.01,2013-06-11 20:17:00,
2013-06-11 16:22:00,77.0,61.1,29.73,NE,50,7.0,13.0,58,0.00,,SKC,0.02,VWS V14.01,2013-06-11 20:22:00,
2013-06-11 16:27:00,77.0,62.1,29.73,East,87,10.0,13.0,60,0.00,,SKC,0.02,VWS V14.01,2013-06-11 20:27:00,
2013-06-11 16:32:00,77.2,61.8,29.73,North,11,0.0,13.0,59,0.00,,SKC,0.02,VWS V14.01,2013-06-11 20:32:00,
2013-06-11 16:37:00,77.6,61.2,29.73,ESE,112,8.0,13.0,57,0.00,,SKC,0.02,VWS V14.01,2013-06-11 20:37:00,
2013-06-11 16:42:00,77.6,61.7,29.73,ENE,71,0.0,13.0,58,0.00,,SKC,0.02,VWS V14.01,2013-06-11 20:42:00,
2013-06-11 16:47:00,77.6,61.7,29.73,ENE,76,5.0,13.0,58,0.00,,SKC,0.02,VWS V14.01,2013-06-11 20:47:00,
2013-06-11 16:52:00,77.4,61.0,29.73,East,91,2.0,13.0,57,0.00,,SKC,0.02,VWS V14.01,2013-06-11 20:52:00,
2013-06-11 16:57:00,77.6,61.2,29.73,NE,36,0.0,13.0,57,0.00,,SKC,0.02,VWS V14.01,2013-06-11 20:57:00,
2013-06-11 17:00:00,77.6,61.7,29.72,NE,53,0.0,11.0,58,0.00,,SKC,0.02,VWS V14.01,2013-06-11 21:00:00,
2013-06-11 17:02:00,77.4,61.0,29.73,ENE,61,2.0,9.0,57,0.00,,SKC,0.02,VWS V14.01,2013-06-11 21:02:00,
2013-06-11 17:07:00,77.4,61.0,29.73,East,84,8.0,10.0,57,0.00,,SKC,0.02,VWS V14.01,2013-06-11 21:07:00,
2013-06-11 17:12:00,77.0,61.6,29.73,East,88,0.0,10.0,59,0.00,,SKC,0.02,VWS V14.01,2013-06-11 21:12:00,
2013-06-11 17:17:00,77.0,61.6,29.73,NNE,32,0.0,10.0,59,0.00,,SKC,0.02,VWS V14.01,2013-06-11 21:17:00,
2013-06-11 17:22:00,76.8,61.9,29.73,NE,53,5.0,11.0,60,0.00,,SKC,0.02,VWS V14.01,2013-06-11 21:22:00,
2013-06-11 17:27:00,76.8,61.9,29.73,North,360,4.0,11.0,60,0.00,,SKC,0.02,VWS V14.01,2013-06-11 21:27:00,
2013-06-11 17:32:00,77.0,61.6,29.73,NW,323,0.0,11.0,59,0.00,,SKC,0.02,VWS V14.01,2013-06-11 21:32:00,
2013-06-11 17:37:00,77.6,63.1,29.73,NE,37,3.0,11.0,61,0.00,,SKC,0.02,VWS V14.01,2013-06-11 21:37:00,
2013-06-11 17:42:00,77.6,62.2,29.73,NE,42,0.0,11.0,59,0.00,,SKC,0.02,VWS V14.01,2013-06-11 21:42:00,
2013-06-11 17:47:00,77.4,62.9,29.72,NE,52,0.0,11.0,61,0.00,,SKC,0.02,VWS V14.01,2013-06-11 21:47:00,
2013-06-11 17:52:00,77.4,62.9,29.72,ENE,67,0.0,11.0,61,0.00,,SKC,0.02,VWS V14.01,2013-06-11 21:52:00,
2013-06-11 17:57:00,77.6,62.6,29.72,NNE,19,4.0,11.0,60,0.00,,SKC,0.02,VWS V14.01,2013-06-11 21:57:00,
2013-06-11 18:00:00,77.7,62.2,29.72,East,82,0.0,10.0,59,0.00,,SKC,0.02,VWS V14.01,2013-06-11 22:00:00,
2013-06-11 18:02:00,77.6,61.7,29.72,NNW,331,4.0,7.0,58,0.00,,SKC,0.02,VWS V14.01,2013-06-11 22:02:00,
2013-06-11 18:08:00,77.7,62.2,29.72,ESE,121,0.0,7.0,59,0.00,,SKC,0.02,VWS V14.01,2013-06-11 22:08:00,
2013-06-11 18:13:00,77.6,61.7,29.72,ENE,75,0.0,7.0,58,0.00,,SKC,0.02,VWS V14.01,2013-06-11 22:13:00,
2013-06-11 18:18:00,77.6,61.2,29.72,NNE,32,0.0,10.0,57,0.00,,SKC,0.02,VWS V14.01,2013-06-11 22:18:00,
2013-06-11 18:23:00,77.6,61.7,29.72,NE,45,5.0,10.0,58,0.00,,SKC,0.02,VWS V14.01,2013-06-11 22:23:00,
2013-06-11 18:28:00,77.7,61.8,29.72,NE,56,6.0,10.0,58,0.00,,SKC,0.02,VWS V14.01,2013-06-11 22:28:00,
2013-06-11 18:33:00,78.1,62.1,29.72,East,94,0.0,10.0,58,0.00,,SKC,0.02,VWS V14.01,2013-06-11 22:33:00,
2013-06-11 18:38:00,78.1,62.1,29.72,NE,42,8.0,10.0,58,0.00,,SKC,0.02,VWS V14.01,2013-06-11 22:38:00,
2013-06-11 18:43:00,77.9,61.5,29.72,NNE,27,0.0,10.0,57,0.00,,SKC,0.02,VWS V14.01,2013-06-11 22:43:00,
2013-06-11 18:48:00,77.6,61.2,29.72,ENE,78,1.0,10.0,57,0.00,,SKC,0.02,VWS V14.01,2013-06-11 22:48:00,
2013-06-11 18:53:00,77.6,61.7,29.72,NE,39,3.0,10.0,58,0.00,,SKC,0.02,VWS V14.01,2013-06-11 22:53:00,
2013-06-11 18:58:00,77.6,62.2,29.72,East,82,0.0,10.0,59,0.00,,SKC,0.02,VWS V14.01,2013-06-11 22:58:00,
2013-06-11 19:00:00,75.8,61.9,29.72,NNE,24,0.0,9.0,62,0.00,,SKC,0.02,VWS V14.01,2013-06-11 23:00:00,
2013-06-11 19:03:00,77.9,62.4,29.72,ENE,75,0.0,6.0,59,0.00,,SKC,0.02,VWS V14.01,2013-06-11 23:03:00,
2013-06-11 19:08:00,77.7,62.2,29.72,ENE,70,1.0,6.0,59,0.00,,SKC,0.02,VWS V14.01,2013-06-11 23:08:00,
2013-06-11 19:13:00,77.6,62.2,29.72,NE,48,0.0,9.0,59,0.00,,SKC,0.02,VWS V14.01,2013-06-11 23:13:00,
2013-06-11 19:18:00,77.6,62.6,29.72,NE,48,0.0,9.0,60,0.00,,SKC,0.02,VWS V14.01,2013-06-11 23:18:00,
2013-06-11 19:23:00,77.6,62.2,29.72,ENE,72,0.0,9.0,59,0.00,,SKC,0.02,VWS V14.01,2013-06-11 23:23:00,
2013-06-11 19:28:00,77.4,62.0,29.72,ENE,72,0.0,9.0,59,0.00,,SKC,0.02,VWS V14.01,2013-06-11 23:28:00,
2013-06-11 19:34:00,77.2,62.2,29.72,ENE,72,0.0,9.0,60,0.00,,SKC,0.02,VWS V14.01,2013-06-11 23:34:00,
2013-06-11 19:39:00,76.8,61.9,29.72,North,11,0.0,9.0,60,0.00,,SKC,0.02,VWS V14.01,2013-06-11 23:39:00,
2013-06-11 19:44:00,76.5,62.1,29.72,North,11,0.0,9.0,61,0.00,,SKC,0.02,VWS V14.01,2013-06-11 23:44:00,
2013-06-11 19:49:00,76.3,62.3,29.72,ENE,58,5.0,9.0,62,0.00,,SKC,0.02,VWS V14.01,2013-06-11 23:49:00,
2013-06-11 19:54:00,76.1,62.2,29.72,ENE,58,0.0,9.0,62,0.00,,SKC,0.02,VWS V14.01,2013-06-11 23:54:00,
2013-06-11 19:59:00,76.0,62.0,29.72,NNE,24,2.0,9.0,62,0.00,,SKC,0.02,VWS V14.01,2013-06-11 23:59:00,
2013-06-11 20:00:00,73.7,61.7,29.73,NNE,24,0.0,2.0,66,0.00,,SKC,0.02,VWS V14.01,2013-06-12 00:00:00,
2013-06-11 20:04:00,75.6,61.7,29.72,NNE,24,0.0,0.0,62,0.00,,SKC,0.02,VWS V14.01,2013-06-12 00:04:00,
2013-06-11 20:09:00,75.4,61.9,29.72,NNE,24,0.0,0.0,63,0.00,,SKC,0.02,VWS V14.01,2013-06-12 00:09:00,
2013-06-11 20:14:00,75.4,61.9,29.72,NNE,24,0.0,2.0,63,0.00,,SKC,0.02,VWS V14.01,2013-06-12 00:14:00,
2013-06-11 20:19:00,75.3,62.3,29.73,NNE,24,0.0,2.0,64,0.00,,SKC,0.02,VWS V14.01,2013-06-12 00:19:00,
2013-06-11 20:24:00,75.1,62.1,29.73,NNE,24,0.0,2.0,64,0.00,,SKC,0.02,VWS V14.01,2013-06-12 00:24:00,
2013-06-11 20:29:00,74.7,61.7,29.73,NNE,24,0.0,2.0,64,0.00,,SKC,0.02,VWS V14.01,2013-06-12 00:29:00,
2013-06-11 20:34:00,74.6,62.1,29.73,NNE,24,0.0,2.0,65,0.00,,SKC,0.02,VWS V14.01,2013-06-12 00:34:00,
2013-06-11 20:39:00,74.2,61.7,29.73,NNE,24,0.0,2.0,65,0.00,,SKC,0.02,VWS V14.01,2013-06-12 00:39:00,
2013-06-11 20:44:00,74.0,61.5,29.73,NNE,24,0.0,2.0,65,0.00,,SKC,0.02,VWS V14.01,2013-06-12 00:44:00,
2013-06-11 20:49:00,74.0,61.5,29.73,NNE,24,0.0,2.0,65,0.00,,SKC,0.02,VWS V14.01,2013-06-12 00:49:00,
2013-06-11 20:54:00,73.9,61.8,29.73,NNE,24,0.0,2.0,66,0.00,,SKC,0.02,VWS V14.01,2013-06-12 00:54:00,
2013-06-11 20:59:00,73.7,61.7,29.73,NNE,24,0.0,2.0,66,0.00,,SKC,0.02,VWS V14.01,2013-06-12 00:59:00,
2013-06-11 21:00:00,72.0,61.7,29.74,NNE,24,0.0,0.0,70,0.00,,SKC,0.02,VWS V14.01,2013-06-12 01:00:00,
2013-06-11 21:04:00,73.7,61.7,29.73,NNE,24,0.0,0.0,66,0.00,,SKC,0.02,VWS V14.01,2013-06-12 01:04:00,
2013-06-11 21:09:00,73.5,61.9,29.73,NNE,24,0.0,0.0,67,0.00,,SKC,0.02,VWS V14.01,2013-06-12 01:09:00,
2013-06-11 21:15:00,73.2,62.0,29.73,NNE,24,0.0,0.0,68,0.00,,SKC,0.02,VWS V14.01,2013-06-12 01:15:00,
2013-06-11 21:20:00,73.0,61.8,29.73,NNE,24,0.0,0.0,68,0.00,,SKC,0.02,VWS V14.01,2013-06-12 01:20:00,
2013-06-11 21:25:00,72.8,61.6,29.73,NNE,24,0.0,0.0,68,0.00,,SKC,0.02,VWS V14.01,2013-06-12 01:25:00,
2013-06-11 21:30:00,72.8,62.0,29.73,NNE,24,0.0,0.0,69,0.00,,SKC,0.02,VWS V14.01,2013-06-12 01:30:00,
2013-06-11 21:35:00,72.7,62.0,29.73,NNE,24,0.0,0.0,69,0.00,,SKC,0.02,VWS V14.01,2013-06-12 01:35:00,
2013-06-11 21:40:00,72.7,62.0,29.73,NNE,24,0.0,0.0,69,0.00,,SKC,0.02,VWS V14.01,2013-06-12 01:40:00,
2013-06-11 21:45:00,72.5,61.8,29.74,NNE,24,0.0,0.0,69,0.00,,SKC,0.02,VWS V14.01,2013-06-12 01:45:00,
2013-06-11 21:50:00,72.3,61.6,29.74,NNE,24,0.0,0.0,69,0.00,,SKC,0.02,VWS V14.01,2013-06-12 01:50:00,
2013-06-11 21:55:00,72.3,62.0,29.74,NNE,24,0.0,0.0,70,0.00,,SKC,0.02,VWS V14.01,2013-06-12 01:55:00,
2013-06-11 22:00:00,72.1,61.8,29.74,NNE,24,0.0,0.0,70,0.00,,SKC,0.02,VWS V14.01,2013-06-12 02:00:00,
2013-06-11 22:05:00,72.0,62.5,29.74,NNE,24,0.0,0.0,72,0.00,,SKC,0.02,VWS V14.01,2013-06-12 02:05:00,
2013-06-11 22:10:00,71.8,62.3,29.74,NNE,24,0.0,0.0,72,0.00,,SKC,0.02,VWS V14.01,2013-06-12 02:10:00,
2013-06-11 22:15:00,71.6,62.5,29.74,NNE,24,0.0,0.0,73,0.00,,SKC,0.02,VWS V14.01,2013-06-12 02:15:00,
2013-06-11 22:21:00,71.5,62.8,29.74,NNE,24,0.0,0.0,74,0.00,,SKC,0.02,VWS V14.01,2013-06-12 02:21:00,
2013-06-11 22:26:00,71.3,62.6,29.74,NNE,24,0.0,0.0,74,0.00,,SKC,0.02,VWS V14.01,2013-06-12 02:26:00,
2013-06-11 22:31:00,71.1,62.8,29.72,NNE,24,0.0,0.0,75,0.00,,SKC,0.02,VWS V14.01,2013-06-12 02:31:00,
2013-06-11 22:36:00,70.9,62.6,29.72,NNE,24,0.0,0.0,75,0.00,,SKC,0.02,VWS V14.01,2013-06-12 02:36:00,
2013-06-11 22:41:00,70.8,62.5,29.72,NNE,24,0.0,0.0,75,0.00,,SKC,0.02,VWS V14.01,2013-06-12 02:41:00,
2013-06-11 22:46:00,70.6,62.3,29.72,NNE,24,0.0,0.0,75,0.00,,SKC,0.02,VWS V14.01,2013-06-12 02:46:00,
2013-06-11 22:51:00,70.6,62.3,29.72,NNE,24,0.0,0.0,75,0.00,,SKC,0.02,VWS V14.01,2013-06-12 02:51:00,
2013-06-11 22:56:00,70.6,62.3,29.72,NNE,24,0.0,0.0,75,0.00,,SKC,0.02,VWS V14.01,2013-06-12 02:56:00,
2013-06-11 23:00:00,68.6,63.2,29.74,NNE,24,0.0,0.0,83,0.00,,SKC,0.02,VWS V14.01,2013-06-12 03:00:00,
2013-06-11 23:01:00,70.6,62.3,29.72,NNE,24,0.0,0.0,75,0.00,,SKC,0.02,VWS V14.01,2013-06-12 03:01:00,
2013-06-11 23:02:00,68.6,63.2,29.74,NNE,24,0.0,0.0,83,0.00,,SKC,0.02,VWS V14.01,2013-06-12 03:02:00,
2013-06-11 23:03:00,68.6,63.2,29.74,NNE,24,0.0,0.0,83,0.00,,SKC,0.02,VWS V14.01,2013-06-12 03:03:00,
2013-06-11 23:04:00,68.6,63.2,29.74,NNE,24,0.0,0.0,83,0.00,,SKC,0.02,VWS V14.01,2013-06-12 03:04:00,
2013-06-11 23:05:00,68.4,63.0,29.74,NNE,24,0.0,0.0,83,0.00,,SKC,0.02,VWS V14.01,2013-06-12 03:05:00,
2013-06-11 23:06:00,70.6,62.3,29.72,NNE,24,0.0,0.0,75,0.00,,SKC,0.02,VWS V14.01,2013-06-12 03:06:00,
2013-06-11 23:07:00,68.4,63.0,29.74,NNE,24,0.0,0.0,83,0.00,,SKC,0.02,VWS V14.01,2013-06-12 03:07:00,
2013-06-11 23:08:00,68.4,63.0,29.74,NNE,24,0.0,0.0,83,0.00,,SKC,0.02,VWS V14.01,2013-06-12 03:08:00,
2013-06-11 23:09:00,68.4,63.0,29.74,NNE,24,0.0,0.0,83,0.00,,SKC,0.02,VWS V14.01,2013-06-12 03:09:00,
2013-06-11 23:10:00,68.4,63.0,29.74,NNE,24,0.0,0.0,83,0.00,,SKC,0.02,VWS V14.01,2013-06-12 03:10:00,
2013-06-11 23:11:00,70.4,62.5,29.72,NNE,24,0.0,0.0,76,0.00,,SKC,0.02,VWS V14.01,2013-06-12 03:11:00,
2013-06-11 23:12:00,68.4,63.0,29.74,NNE,24,0.0,0.0,83,0.00,,SKC,0.02,VWS V14.01,2013-06-12 03:12:00,
2013-06-11 23:13:00,68.4,63.4,29.74,NNE,24,0.0,0.0,84,0.00,,SKC,0.02,VWS V14.01,2013-06-12 03:13:00,
2013-06-11 23:14:00,68.4,63.4,29.74,NNE,24,0.0,0.0,84,0.00,,SKC,0.02,VWS V14.01,2013-06-12 03:14:00,
2013-06-11 23:15:00,68.4,63.4,29.74,NNE,24,0.0,0.0,84,0.00,,SKC,0.02,VWS V14.01,2013-06-12 03:15:00,
2013-06-11 23:16:00,70.3,62.8,29.72,NNE,24,0.0,0.0,77,0.00,,SKC,0.02,VWS V14.01,2013-06-12 03:16:00,
2013-06-11 23:17:00,68.4,63.4,29.74,NNE,24,0.0,0.0,84,0.00,,SKC,0.02,VWS V14.01,2013-06-12 03:17:00,
2013-06-11 23:18:00,68.4,63.4,29.74,NNE,24,0.0,0.0,84,0.00,,SKC,0.02,VWS V14.01,2013-06-12 03:18:00,
2013-06-11 23:19:00,68.3,63.3,29.74,NNE,24,0.0,0.0,84,0.00,,SKC,0.02,VWS V14.01,2013-06-12 03:19:00,
2013-06-11 23:20:00,68.3,63.3,29.74,NNE,24,0.0,0.0,84,0.00,,SKC,0.02,VWS V14.01,2013-06-12 03:20:00,
2013-06-11 23:21:00,70.1,62.6,29.72,NNE,24,0.0,0.0,77,0.00,,SKC,0.02,VWS V14.01,2013-06-12 03:21:00,
2013-06-11 23:22:00,68.3,63.3,29.74,NNE,24,0.0,0.0,84,0.00,,SKC,0.02,VWS V14.01,2013-06-12 03:22:00,
2013-06-11 23:26:00,69.8,62.3,29.72,NNE,24,0.0,0.0,77,0.00,,SKC,0.02,VWS V14.01,2013-06-12 03:26:00,
2013-06-11 23:31:00,69.6,62.4,29.72,NNE,24,0.0,0.0,78,0.00,,SKC,0.02,VWS V14.01,2013-06-12 03:31:00,
2013-06-11 23:37:00,69.3,62.2,29.72,NNE,24,0.0,0.0,78,0.00,,SKC,0.02,VWS V14.01,2013-06-12 03:37:00,
2013-06-11 23:42:00,69.1,62.3,29.72,NNE,24,0.0,0.0,79,0.00,,SKC,0.02,VWS V14.01,2013-06-12 03:42:00,
2013-06-11 23:47:00,69.1,62.7,29.72,NNE,24,0.0,0.0,80,0.00,,SKC,0.02,VWS V14.01,2013-06-12 03:47:00,
2013-06-11 23:52:00,69.1,63.4,29.72,NNE,24,0.0,0.0,82,0.00,,SKC,0.02,VWS V14.01,2013-06-12 03:52:00,
2013-06-11 23:57:00,68.8,63.4,29.72,NNE,24,0.0,0.0,83,0.00,,SKC,0.02,VWS V14.01,2013-06-12 03:57:00,